Martinsville, VA

12:39 AM EDT on July 21, 2017 (GMT -0400)
Blue Ridge

Weather History for KMTV - March, 2013

Change the Weather History Date:

Saturday, March 30, 2013

  Actual Average (KINT) Record (KINT)
Temperature  
Mean Temperature 50 °F -  
Max Temperature 68 °F 62 °F 86 °F (1989)
Min Temperature 33 °F 43 °F 21 °F (1982)
Degree Days  
Heating Degree Days 14    
Moisture  
Dew Point 35 °F    
Average Humidity 62    
Maximum Humidity 99    
Minimum Humidity 29    
Precipitation  
Precipitation 0.00 in - - ()
Sea Level Pressure  
Sea Level Pressure 30.18 in    
Wind  
Wind Speed 1 mph (SE)    
Max Wind Speed 8 mph    
Max Gust Speed -    
Visibility 10 miles    
Events      
Averages and records for this station are not official NWS values.
T = Trace of Precipitation, MM = Missing Value Source: NWS Daily Summary

Daily Weather History Graph

Daily Weather History Graph

Search for Another Location

Airport or City:

Trip Planner

Search our weather history database for the weather conditions in past years. The results will help you decide how hot, cold, wet, or windy it might be!

Date:

Astronomy

Mar. 30, 2013 Rise Set
Actual Time 7:08 AM EDT 7:40 PM EDT
Civil Twilight 6:42 AM EDT 8:06 PM EDT
Nautical Twilight 6:12 AM EDT 8:37 PM EDT
Astronomical Twilight 5:40 AM EDT 9:08 PM EDT
Moon 11:39 PM EDT (3/30) 9:08 AM EDT (3/30)
Length of Visible Light 13h 24m
Length of Day
12h 32m
Waning Gibbous, 86% of the Moon is Illuminated
Mar 30
Waning Gibbous
Apr 3
Last Quarter
Apr 10
New
Apr 18
First Quarter
Apr 25
Full

Hourly Weather History & Observations

Time (EDT) Temp. Dew Point Humidity Pressure Visibility Wind Dir Wind Speed Gust Speed Precip Events Conditions
12:15 AM 43.0 °F 33.8 °F 70% 30.23 in 10.0 mi Calm Calm - N/A   Overcast
12:35 AM 42.3 °F 34.0 °F 72% 30.23 in 10.0 mi Calm Calm - N/A   Overcast
12:55 AM 40.5 °F 34.2 °F 78% 30.22 in 10.0 mi Calm Calm - N/A   Overcast
1:15 AM 39.4 °F 33.8 °F 80% 30.22 in 10.0 mi Calm Calm - N/A   Overcast
1:35 AM 37.8 °F 33.1 °F 83% 30.22 in 10.0 mi Calm Calm - N/A   Overcast
1:55 AM 38.5 °F 33.1 °F 81% 30.22 in 10.0 mi Calm Calm - N/A   Overcast
2:15 AM 36.7 °F 33.1 °F 87% 30.22 in 10.0 mi Calm Calm - N/A   Overcast
2:35 AM 36.3 °F 32.4 °F 86% 30.22 in 10.0 mi Calm Calm - N/A   Overcast
2:55 AM 34.5 °F 32.0 °F 90% 30.22 in 10.0 mi Calm Calm - N/A   Scattered Clouds
3:15 AM 35.6 °F 32.9 °F 90% 30.21 in 10.0 mi Calm Calm - N/A   Mostly Cloudy
3:35 AM 34.3 °F 32.0 °F 91% 30.22 in 10.0 mi Calm Calm - N/A   Mostly Cloudy
3:55 AM 33.6 °F 32.0 °F 94% 30.22 in 10.0 mi Calm Calm - N/A   Mostly Cloudy
4:15 AM 35.8 °F 32.9 °F 89% 30.22 in 10.0 mi Calm Calm - N/A   Overcast
4:35 AM 37.0 °F 33.4 °F 87% 30.21 in 10.0 mi Calm Calm - N/A   Overcast
4:55 AM 36.7 °F 34.9 °F 93% 30.21 in 10.0 mi Calm Calm - N/A   Overcast
5:15 AM 36.0 °F 34.9 °F 96% 30.22 in 10.0 mi Calm Calm - N/A   Overcast
5:35 AM 36.3 °F 33.6 °F 90% 30.22 in 10.0 mi Calm Calm - N/A   Overcast
5:55 AM 35.6 °F 33.6 °F 92% 30.22 in 10.0 mi Calm Calm - N/A   Overcast
6:15 AM 35.8 °F 33.8 °F 92% 30.22 in 10.0 mi Calm Calm - N/A   Overcast
6:35 AM 34.3 °F 32.9 °F 94% 30.23 in 10.0 mi Calm Calm - N/A   Overcast
6:55 AM 34.3 °F 33.1 °F 95% 30.24 in 10.0 mi Calm Calm - N/A   Overcast
7:15 AM 33.8 °F 33.1 °F 97% 30.25 in 10.0 mi Calm Calm - N/A   Overcast
7:35 AM 33.6 °F 33.4 °F 99% 30.25 in 10.0 mi Calm Calm - N/A   Overcast
7:55 AM 34.7 °F 33.3 °F 94% 30.25 in 10.0 mi Calm Calm - N/A   Mostly Cloudy
8:15 AM 36.5 °F 34.7 °F 93% 30.26 in 10.0 mi Calm Calm - N/A   Scattered Clouds
8:35 AM 40.3 °F 37.2 °F 89% 30.26 in 10.0 mi Calm Calm - N/A   Clear
8:55 AM 44.4 °F 37.4 °F 76% 30.27 in 10.0 mi Calm Calm - N/A   Clear
9:15 AM 48.0 °F 38.8 °F 71% 30.27 in 10.0 mi Calm Calm - N/A   Clear
9:35 AM 51.1 °F 39.2 °F 64% 30.27 in 10.0 mi Calm Calm - N/A   Clear
9:55 AM 54.1 °F 37.8 °F 54% 30.27 in 10.0 mi ENE 3.5 mph - N/A   Clear
10:15 AM 56.3 °F 35.6 °F 46% 30.26 in 10.0 mi ESE 4.6 mph - N/A   Clear
10:35 AM 57.2 °F 34.7 °F 43% 30.26 in 10.0 mi NE 3.5 mph - N/A   Clear
10:55 AM 57.7 °F 34.3 °F 41% 30.25 in 10.0 mi ESE 4.6 mph - N/A   Clear
11:15 AM 59.2 °F 34.0 °F 39% 30.25 in 10.0 mi Calm Calm - N/A   Clear
11:35 AM 59.9 °F 34.3 °F 38% 30.24 in 10.0 mi SSE 3.5 mph - N/A   Clear
11:55 AM 61.7 °F 34.9 °F 37% 30.22 in 10.0 mi East 4.6 mph - N/A   Clear
12:15 PM 61.5 °F 34.5 °F 36% 30.22 in 10.0 mi ESE 3.5 mph - N/A   Clear
12:35 PM 62.4 °F 34.3 °F 35% 30.21 in 10.0 mi South 3.5 mph - N/A   Clear
12:55 PM 62.1 °F 34.0 °F 35% 30.19 in 10.0 mi NNE 4.6 mph - N/A   Clear
1:15 PM 63.1 °F 35.2 °F 35% 30.19 in 10.0 mi Calm Calm - N/A   Clear
1:35 PM 64.4 °F 34.7 °F 33% 30.19 in 10.0 mi NW 3.5 mph - N/A   Clear
1:55 PM 64.9 °F 34.5 °F 32% 30.16 in 10.0 mi SSE 6.9 mph - N/A   Clear
2:15 PM 66.7 °F 36.3 °F 33% 30.16 in 10.0 mi SE 5.8 mph - N/A   Clear
2:35 PM 66.7 °F 35.6 °F 32% 30.15 in 10.0 mi South 5.8 mph - N/A   Clear
2:55 PM 66.6 °F 35.4 °F 32% 30.14 in 10.0 mi SE 3.5 mph - N/A   Clear
3:15 PM 67.3 °F 36.0 °F 32% 30.14 in 10.0 mi Calm Calm - N/A   Clear
3:35 PM 66.9 °F 33.8 °F 29% 30.13 in 10.0 mi WSW 3.5 mph - N/A   Clear
3:55 PM 67.3 °F 34.7 °F 30% 30.12 in 10.0 mi West 3.5 mph - N/A   Clear
4:15 PM 67.5 °F 35.1 °F 30% 30.11 in 10.0 mi WNW 4.6 mph - N/A   Clear
4:35 PM 68.2 °F 34.5 °F 29% 30.10 in 10.0 mi West 8.1 mph - N/A   Clear
4:55 PM 66.2 °F 34.2 °F 30% 30.10 in 10.0 mi Calm Calm - N/A   Clear
5:15 PM 67.1 °F 35.1 °F 31% 30.10 in 10.0 mi Calm Calm - N/A   Clear
5:35 PM 65.8 °F 34.3 °F 31% 30.10 in 10.0 mi Calm Calm - N/A   Clear
5:55 PM 66.4 °F 34.7 °F 31% 30.09 in 10.0 mi SW 4.6 mph - N/A   Clear
6:15 PM 64.9 °F 36.3 °F 35% 30.09 in 10.0 mi Calm Calm - N/A   Clear
6:35 PM 64.4 °F 35.6 °F 34% 30.09 in 10.0 mi Calm Calm - N/A   Clear
6:55 PM 62.6 °F 34.7 °F 35% 30.10 in 10.0 mi Calm Calm - N/A   Clear
7:15 PM 60.8 °F 34.7 °F 38% 30.10 in 10.0 mi Calm Calm - N/A   Clear
7:35 PM 58.8 °F 35.4 °F 42% 30.10 in 10.0 mi Calm Calm - N/A   Clear
7:55 PM 55.0 °F 37.8 °F 52% 30.10 in 10.0 mi Calm Calm - N/A   Clear
8:15 PM 53.8 °F 37.0 °F 53% 30.11 in 10.0 mi Calm Calm - N/A   Clear
8:35 PM 53.1 °F 36.5 °F 53% 30.10 in 10.0 mi Calm Calm - N/A   Clear
8:55 PM 51.6 °F 36.5 °F 56% 30.11 in 10.0 mi Calm Calm - N/A   Clear
9:15 PM 49.3 °F 38.3 °F 66% 30.10 in 10.0 mi Calm Calm - N/A   Clear
9:35 PM 50.2 °F 36.5 °F 59% 30.11 in 10.0 mi Calm Calm - N/A   Clear
9:55 PM 48.2 °F 38.7 °F 70% 30.11 in 10.0 mi Calm Calm - N/A   Clear
10:15 PM 48.0 °F 38.5 °F 70% 30.10 in 10.0 mi Calm Calm - N/A   Clear
10:35 PM 46.8 °F 38.7 °F 73% 30.10 in 10.0 mi Calm Calm - N/A   Clear
10:55 PM 46.6 °F 38.1 °F 72% 30.10 in 10.0 mi Calm Calm - N/A   Clear
11:15 PM 45.9 °F 39.2 °F 78% 30.10 in 10.0 mi Calm Calm - N/A   Clear
11:35 PM 45.5 °F 39.2 °F 79% 30.10 in 10.0 mi Calm Calm - N/A   Clear
11:55 PM 43.7 °F 38.5 °F 82% 30.10 in 10.0 mi Calm Calm - N/A   Clear